EDT,Max TemperatureF,Mean TemperatureF,Min TemperatureF,Max Dew PointF,MeanDew PointF,Min DewpointF,Max Humidity, Mean Humidity, Min Humidity, Max Sea Level PressureIn, Mean Sea Level PressureIn, Min Sea Level PressureIn, Max VisibilityMiles, Mean VisibilityMiles, Min VisibilityMiles, Max Wind SpeedMPH, Mean Wind SpeedMPH, Max Gust SpeedMPH,PrecipitationIn, CloudCover, Events, WindDirDegrees
2013-6-1,91,78,64,70,66,63,100,75,43,30.07,30.02,29.93,10,10,10,13,4,16,0.00,0,,193
2013-6-2,80,74,68,72,67,64,100,83,61,29.94,29.90,29.87,10,10,10,12,7,16,0.00,3,Rain-Thunderstorm,198
2013-6-3,78,71,64,68,63,54,100,83,54,29.99,29.90,29.87,10,9,4,13,3,16,0.13,6,Rain,307
2013-6-4,75,62,50,64,50,45,100,72,36,30.16,30.09,30.00,10,10,7,9,3,,0.00,0,,356
2013-6-5,80,65,50,57,54,50,100,82,42,30.22,30.15,30.07,10,10,3,9,2,16,0.00,2,,95
2013-6-6,69,62,55,66,59,54,100,90,72,30.10,30.03,29.92,10,8,2,8,1,,0.11,6,Rain,131
2013-6-7,68,64,60,68,63,61,100,100,100,29.91,29.80,29.66,10,5,2,13,4,,0.06,8,Rain,13
2013-6-8,78,69,60,64,62,43,100,86,33,30.13,29.93,29.75,10,10,5,13,4,17,0.00,4,,292
2013-6-9,80,68,57,70,63,57,100,92,57,30.23,30.16,30.13,10,6,2,6,1,,0.01,6,,85
2013-6-10,80,72,64,75,68,64,100,98,79,30.14,29.99,29.81,10,7,2,9,2,,0.16,7,Rain-Thunderstorm,175
2013-6-11,80,71,62,68,65,63,100,86,58,29.87,29.84,29.82,10,10,10,15,5,23,0.00,3,,241
2013-6-12,87,76,66,72,66,63,100,79,49,29.90,29.87,29.82,10,9,5,13,6,17,0.00,3,Rain-Thunderstorm,269
2013-6-13,84,75,66,70,68,61,100,92,58,29.85,29.70,29.50,10,6,1,23,3,34,0.01,3,Rain-Thunderstorm,248
2013-6-14,78,69,60,59,55,54,94,69,42,30.01,29.89,29.72,10,10,10,21,8,28,0.00,4,,360
2013-6-15,80,68,55,61,57,52,100,83,37,30.11,30.05,30.01,10,9,7,13,2,18,0.00,0,,236
2013-6-16,80,70,59,66,61,57,100,83,53,30.06,30.00,29.92,10,10,10,16,2,23,0.00,2,Rain,225
2013-6-17,86,75,64,70,65,63,100,79,55,29.99,29.96,29.91,10,10,10,10,5,,0.00,1,,239
2013-6-18,75,70,64,72,68,64,100,98,88,29.95,29.90,29.82,10,7,3,7,2,,0.02,6,Rain-Thunderstorm,171
2013-6-19,78,69,60,64,62,59,100,89,51,30.19,30.05,29.93,10,9,5,12,4,,0.08,6,Rain,24
2013-6-20,80,68,55,66,60,55,100,88,51,30.30,30.25,30.19,10,6,0,10,1,16,0.00,4,Fog,185
2013-6-21,82,68,53,63,56,52,100,77,42,30.34,30.30,30.26,10,10,10,8,1,,0.00,0,,156
2013-6-22,87,72,57,68,62,55,100,83,49,30.29,30.25,30.16,10,10,5,10,2,,0.00,1,,189
2013-6-23,86,74,62,72,68,63,100,89,58,30.23,30.18,30.10,10,9,0,7,2,,0.00,3,Fog,176
2013-6-24,91,80,68,72,70,68,100,91,49,30.16,30.12,30.06,10,10,2,18,3,24,0.00,2,Rain-Thunderstorm,193
2013-6-25,91,78,66,72,69,66,100,85,49,30.07,30.03,29.92,10,9,5,16,5,31,0.00,1,,194
2013-6-26,89,76,64,73,68,64,100,89,55,29.96,29.91,29.85,10,10,5,10,4,25,0.00,2,Rain-Thunderstorm,191
2013-6-27,98,82,66,73,69,66,100,87,39,29.97,29.77,29.64,10,7,1,14,4,20,0.00,3,,206
2013-6-28,87,78,68,73,67,63,100,80,54,29.65,29.60,29.52,10,10,10,12,5,29,0.00,3,,223
2013-6-29,87,76,64,66,64,61,100,81,40,29.67,29.60,29.56,10,10,10,9,4,,0.00,3,Rain,194
2013-6-30,87,79,71,75,73,72,100,77,58,29.83,29.80,29.77,10,9,7,9,4,16,0.00,4,,182